When you browse on this site, cookies collect data to enhance your experience and personalize the content and advertising you see.
Visit our Privacy Policy to learn more. By continuing to use the site, you agree to this use of cookies and data.
  • In Czech Republic
  • List of Countries
  • For 7 days
  • Water Temperature
  • Satellite Maps
  • Weather Map
  • Weather Widgets
  • user-avatar
    Login

    Hourly Weather Przekupow

    Today, 10 December, Monday

    Time Temperature Precipitation Wind Pressure Humidity
    00:00 +4°C° 0.3 mm 7 mps 737 mmHg 79%
    01:00 +4°C° 0.3 mm 8 mps 738 mmHg 79%
    02:00 +4°C° 0.4 mm 8 mps 738 mmHg 78%
    03:00 +4°C° 0.4 mm 8 mps 738 mmHg 77%
    04:00 +4°C° 0.4 mm 8 mps 739 mmHg 76%
    05:00 +2°C° 0.1 mm 8 mps 740 mmHg 76%
    06:00 +2°C° 0.1 mm 8 mps 740 mmHg 75%
    07:00 +2°C° 0.1 mm 7 mps 741 mmHg 75%
    08:00 +1°C° 0 mm 8 mps 741 mmHg 74%
    09:00 +1°C° 0 mm 8 mps 742 mmHg 73%
    10:00 +1°C° 0 mm 8 mps 743 mmHg 72%
    11:00 +2°C° 0.1 mm 8 mps 743 mmHg 70%
    12:00 +2°C° 0.1 mm 8 mps 743 mmHg 67%
    13:00 +2°C° 0.1 mm 8 mps 743 mmHg 65%
    14:00 +1°C° 0.1 mm 8 mps 744 mmHg 66%
    15:00 +2°C° 0.1 mm 7 mps 744 mmHg 68%
    16:00 +2°C° 0.1 mm 6 mps 744 mmHg 70%
    17:00 +1°C° 0 mm 6 mps 744 mmHg 71%
    18:00 +1°C° 0 mm 6 mps 744 mmHg 72%
    19:00 +1°C° 0 mm 6 mps 744 mmHg 73%
    20:00 -1°C° 0 mm 6 mps 744 mmHg 75%
    21:00 0°C° 0 mm 5 mps 744 mmHg 77%
    22:00 0°C° 0 mm 5 mps 744 mmHg 79%
    23:00 0°C° 0 mm 5 mps 744 mmHg 81%

    Tomorrow, 11 December, Tuesday

    Time Temperature Precipitation Wind Pressure Humidity
    00:00 0°C° 0 mm 5 mps 744 mmHg 82%
    01:00 0°C° 0 mm 5 mps 744 mmHg 84%
    02:00 0°C° 0.2 mm 5 mps 744 mmHg 84%
    03:00 0°C° 0.2 mm 5 mps 744 mmHg 85%
    04:00 0°C° 0.2 mm 5 mps 744 mmHg 85%
    05:00 0°C° 0.3 mm 5 mps 744 mmHg 86%
    06:00 0°C° 0.3 mm 4 mps 744 mmHg 86%
    07:00 0°C° 0.3 mm 4 mps 744 mmHg 87%
    08:00 0°C° 0.4 mm 4 mps 744 mmHg 87%
    09:00 0°C° 0.4 mm 4 mps 744 mmHg 88%
    10:00 0°C° 0.4 mm 4 mps 744 mmHg 88%
    11:00 +2°C° 0.2 mm 3 mps 744 mmHg 89%
    12:00 +2°C° 0.2 mm 3 mps 745 mmHg 90%
    13:00 +2°C° 0.2 mm 3 mps 745 mmHg 90%
    14:00 +2°C° 0.3 mm 3 mps 745 mmHg 92%
    15:00 +3°C° 0.3 mm 2 mps 746 mmHg 93%
    16:00 +2°C° 0.3 mm 2 mps 746 mmHg 94%
    17:00 +1°C° 0.2 mm 3 mps 747 mmHg 95%
    18:00 +1°C° 0.2 mm 3 mps 747 mmHg 95%
    19:00 +1°C° 0.2 mm 3 mps 747 mmHg 95%
    20:00 +1°C° 0.1 mm 3 mps 748 mmHg 94%
    21:00 +1°C° 0.1 mm 3 mps 748 mmHg 93%
    22:00 0°C° 0.1 mm 4 mps 749 mmHg 92%
    23:00 0°C° 0.1 mm 4 mps 749 mmHg 92%

    Day after tomorrow, 12 December, Wednesday

    Time Temperature Precipitation Wind Pressure Humidity
    00:00 -1°C° 0.1 mm 4 mps 750 mmHg 92%
    01:00 -1°C° 0.1 mm 4 mps 750 mmHg 92%
    02:00 -1°C° 0.1 mm 4 mps 750 mmHg 93%
    03:00 0°C° 0.1 mm 3 mps 751 mmHg 93%
    04:00 0°C° 0.1 mm 3 mps 751 mmHg 93%
    05:00 -1°C° 0.1 mm 3 mps 751 mmHg 94%
    06:00 -1°C° 0.1 mm 3 mps 752 mmHg 94%
    07:00 -1°C° 0.1 mm 3 mps 752 mmHg 94%
    08:00 -1°C° 0 mm 2 mps 753 mmHg 93%
    09:00 -1°C° 0 mm 2 mps 753 mmHg 91%
    10:00 -1°C° 0 mm 2 mps 753 mmHg 90%
    11:00 +1°C° 0 mm 2 mps 753 mmHg 88%
    12:00 +1°C° 0 mm 2 mps 753 mmHg 87%
    13:00 +2°C° 0 mm 1 mps 753 mmHg 85%
    14:00 +2°C° 0 mm 1 mps 753 mmHg 87%
    15:00 +1°C° 0 mm 1 mps 754 mmHg 90%
    16:00 +1°C° 0 mm 1 mps 754 mmHg 92%
    17:00 0°C° 0 mm 1 mps 754 mmHg 92%
    18:00 0°C° 0 mm 1 mps 754 mmHg 92%
    19:00 0°C° 0 mm 1 mps 754 mmHg 92%
    20:00 0°C° 0 mm 1 mps 754 mmHg 92%
    21:00 0°C° 0 mm 1 mps 755 mmHg 92%
    22:00 -1°C° 0 mm 0 mps 755 mmHg 92%
    23:00 -1°C° 0 mm 0 mps 755 mmHg 92%

    13 December, Thursday

    Time Temperature Precipitation Wind Pressure Humidity
    00:00 -1°C° 0 mm 0 mps 755 mmHg 92%
    01:00 0°C° 0 mm 1 mps 755 mmHg 92%
    02:00 0°C° 0 mm 1 mps 755 mmHg 92%
    03:00 0°C° 0 mm 1 mps 755 mmHg 92%
    04:00 0°C° 0 mm 1 mps 755 mmHg 92%
    05:00 0°C° 0 mm 1 mps 755 mmHg 92%
    06:00 0°C° 0 mm 1 mps 755 mmHg 92%
    07:00 0°C° 0 mm 1 mps 755 mmHg 92%
    08:00 0°C° 0 mm 1 mps 755 mmHg 91%
    09:00 +1°C° 0 mm 1 mps 755 mmHg 90%
    10:00 +1°C° 0 mm 1 mps 755 mmHg 89%
    11:00 +1°C° 0 mm 1 mps 755 mmHg 87%
    12:00 +1°C° 0 mm 1 mps 754 mmHg 85%
    13:00 +2°C° 0 mm 1 mps 754 mmHg 83%
    14:00 +2°C° 0 mm 1 mps 754 mmHg 84%
    15:00 +1°C° 0 mm 1 mps 754 mmHg 85%
    16:00 +1°C° 0 mm 1 mps 754 mmHg 85%
    17:00 +1°C° 0 mm 1 mps 754 mmHg 86%
    18:00 +1°C° 0 mm 1 mps 753 mmHg 87%
    19:00 +1°C° 0 mm 1 mps 753 mmHg 87%
    20:00 +1°C° 0 mm 1 mps 753 mmHg 88%
    21:00 +1°C° 0 mm 1 mps 753 mmHg 89%
    22:00 +1°C° 0 mm 1 mps 753 mmHg 90%
    23:00 +1°C° 0 mm 1 mps 753 mmHg 90%

    14 December, Friday

    Time Temperature Precipitation Wind Pressure Humidity
    00:00 +1°C° 0 mm 1 mps 753 mmHg 90%
    01:00 0°C° 0 mm 1 mps 753 mmHg 90%
    02:00 -2°C° 0 mm 2 mps 753 mmHg 91%
    03:00 -2°C° 0 mm 2 mps 753 mmHg 91%
    04:00 -2°C° 0 mm 2 mps 753 mmHg 92%
    05:00 -2°C° 0 mm 2 mps 753 mmHg 91%
    06:00 -2°C° 0 mm 2 mps 753 mmHg 90%
    07:00 -2°C° 0 mm 2 mps 753 mmHg 90%
    08:00 -2°C° 0 mm 2 mps 754 mmHg 88%
    09:00 -2°C° 0 mm 2 mps 754 mmHg 87%
    10:00 -2°C° 0 mm 2 mps 754 mmHg 85%
    11:00 -1°C° 0 mm 2 mps 754 mmHg 84%
    12:00 -1°C° 0 mm 2 mps 754 mmHg 82%
    13:00 -1°C° 0 mm 2 mps 754 mmHg 80%
    14:00 -1°C° 0 mm 2 mps 754 mmHg 83%
    15:00 -2°C° 0 mm 2 mps 754 mmHg 86%
    16:00 -2°C° 0 mm 2 mps 754 mmHg 88%
    17:00 -2°C° 0 mm 2 mps 754 mmHg 89%
    18:00 -2°C° 0 mm 2 mps 754 mmHg 89%
    19:00 -2°C° 0 mm 2 mps 754 mmHg 90%
    20:00 -2°C° 0 mm 2 mps 754 mmHg 90%
    21:00 -2°C° 0 mm 2 mps 754 mmHg 90%
    22:00 -2°C° 0 mm 2 mps 754 mmHg 90%
    23:00 -2°C° 0 mm 2 mps 754 mmHg 90%

    15 December, Saturday

    Time Temperature Precipitation Wind Pressure Humidity
    00:00 -2°C° 0 mm 2 mps 754 mmHg 90%
    01:00 -2°C° 0 mm 2 mps 754 mmHg 90%
    02:00 -2°C° 0 mm 2 mps 754 mmHg 89%
    03:00 -2°C° 0 mm 3 mps 754 mmHg 89%
    04:00 -2°C° 0 mm 3 mps 754 mmHg 89%
    05:00 -2°C° 0 mm 3 mps 755 mmHg 89%
    06:00 -2°C° 0 mm 3 mps 755 mmHg 89%
    07:00 -2°C° 0 mm 3 mps 755 mmHg 89%
    08:00 -2°C° 0 mm 3 mps 756 mmHg 88%
    09:00 -2°C° 0 mm 3 mps 756 mmHg 87%
    10:00 -2°C° 0 mm 3 mps 756 mmHg 86%
    11:00 -1°C° 0 mm 3 mps 756 mmHg 84%
    12:00 -1°C° 0 mm 3 mps 756 mmHg 82%
    13:00 -1°C° 0 mm 3 mps 756 mmHg 81%
    14:00 -1°C° 0 mm 3 mps 756 mmHg 82%
    15:00 -1°C° 0 mm 2 mps 756 mmHg 83%
    16:00 -2°C° 0 mm 2 mps 756 mmHg 84%
    17:00 -2°C° 0 mm 2 mps 756 mmHg 86%
    18:00 -2°C° 0 mm 2 mps 756 mmHg 87%
    19:00 -2°C° 0 mm 2 mps 756 mmHg 89%
    20:00 -2°C° 0 mm 2 mps 756 mmHg 90%
    21:00 -3°C° 0 mm 2 mps 756 mmHg 91%
    22:00 -3°C° 0 mm 2 mps 756 mmHg 92%
    23:00 -3°C° 0 mm 2 mps 756 mmHg 92%
    Show more